Regional Weather Roundup
Issued by NWS

Home | Current Version | Previous Version | Graphics & Text | Print | Product List | Glossary On
Versions: 1 2 3 4 5 6 7 8 9 10 11 12 13 14 15 16 17 18 19 20 21 22 23 24 25 26 27 28 29 30 31 32 33 34 35 36 37 38 39 40 41 42 43 44 45 46 47 48 49 50
000
ASUS43 KTOP 222208
RWRKS

WEATHER ROUNDUP FOR KANSAS
NATIONAL WEATHER SERVICE GOODLAND KS
400 PM CST THU FEB 22 2018

NOTE:  "FAIR" INDICATES FEW OR NO CLOUDS BELOW 12,000 FEET WITH NO
SIGNIFICANT WEATHER AND/OR OBSTRUCTIONS TO VISIBILITY.

KSZ001>006-013>018-027>032-041>047-222300-
NORTHWEST KANSAS

CITY           SKY/WX    TMP DP  RH WIND       PRES   REMARKS
GOODLAND       SUNNY     31  18  58 SE7       29.98F
HAYS           CLOUDY    28  26  92 S5        30.13F FOG
HILL CITY      CLOUDY    27  24  89 SE6       30.13S FOG
RUSSELL        CLOUDY    31  30  96 S7        30.12F FOG
$$

KSZ061>065-074>080-084>089-222300-
SOUTHWEST KANSAS

CITY           SKY/WX    TMP DP  RH WIND       PRES   REMARKS
DODGE CITY     CLOUDY    30  26  85 S12       30.07F WCI  20
ELKHART        SUNNY     55  26  32 S24       29.93F
GARDEN CITY    PTSUNNY   33  23  66 SE14      30.03F WCI  23
GREAT BEND     CLOUDY    30  28  92 SE6       30.13F FOG
LIBERAL        SUNNY     40  27  59 SE15      30.02F WCI  32
PRATT          CLOUDY    31  28  91 S7        30.13S
$$

KSZ066>073-081>083-090>101-222300-
SOUTHEAST KANSAS

CITY           SKY/WX    TMP DP  RH WIND       PRES   REMARKS
CHANUTE        LGT RAIN  36  34  92 E10       30.16F WCI  28
COFFEYVILLE    LGT RAIN  38  38 100 W7        30.20R FOG
HUTCHINSON     CLOUDY    30  30 100 SE7       30.15F FOG
MEDICINE LODGE   N/A     30  28  92 S6        30.15F
NEWTON         CLOUDY    31  29  92 S7        30.17F
PARSONS        LGT RAIN  37  37 100 VRB5      30.17R FOG
WICHITA INTL   FRZ DRZL  31  31 100 S3        30.18S FOG
WICHITA JABRA  CLOUDY    31  31 100 S5        30.18R FOG
WICHITA MCCONL MIX PCPN  32  32 100 CALM      30.18  FOG
WINFIELD       CLOUDY    32  32 100 SW3       30.20F
$$

KSZ007>012-019>026-033>040-048>060-102>105-222300-
NORTHEAST KANSAS

CITY           SKY/WX    TMP DP  RH WIND       PRES   REMARKS
CONCORDIA      FRZ RAIN  29  29 100 SE6       30.15F FOG
EMPORIA        CLOUDY    32  30  92 E7        30.17S
LAWRENCE       CLOUDY    33  32  96 NE8       30.17F FOG
MANHATTAN      CLOUDY    32  29  88 E8        30.17F
MARYSVILLE     CLOUDY    32  30  93 SE6       30.18F
OLATHE IND     CLOUDY    32  32 100 E10       30.18F FOG     WCI  24
OLATHE EXE     CLOUDY    31  31 100 E12       30.18F FOG     WCI  22
SALINA         CLOUDY    32  31  96 SE7       30.17S FOG
TOPEKA BILLARD CLOUDY    32  32 100 E8        30.18F FOG
TOPEKA FORBES  CLOUDY    33  32  96 E9        30.17F FOG
$$



USA.gov is the U.S. government's official web portal to all federal, state and local government web resources and services.